Time,TemperatureF,DewpointF,PressureIn,WindDirection,WindDirectionDegrees,WindSpeedMPH,WindSpeedGustMPH,Humidity,HourlyPrecipIn,Conditions,Clouds,dailyrainin,SoftwareType,DateUTC
2013-04-20 00:01:00,29.0,3.0,-100.00,NE,55,2.0,3.0,32,0.00,,,0.01,,2013-04-20 08:01:00,
2013-04-20 00:11:00,29.0,3.0,-100.00,NE,55,2.0,3.0,32,0.00,,,0.01,,2013-04-20 08:11:00,
2013-04-20 00:21:00,30.0,2.0,-100.00,NE,55,6.0,9.0,30,0.00,,,0.01,,2013-04-20 08:21:00,
2013-04-20 00:31:00,30.0,2.0,-100.00,NE,55,6.0,9.0,30,0.00,,,0.01,,2013-04-20 08:31:00,
2013-04-20 00:42:00,30.0,2.0,-100.00,NE,55,6.0,9.0,30,0.00,,,0.01,,2013-04-20 08:42:00,
2013-04-20 00:52:00,29.0,1.0,-100.00,NE,50,3.0,7.0,28,0.00,,,0.01,,2013-04-20 08:52:00,
2013-04-20 01:01:00,29.0,1.0,-100.00,NE,50,3.0,7.0,28,0.00,,,0.01,,2013-04-20 09:01:00,
2013-04-20 01:12:00,29.0,1.0,-100.00,NE,50,3.0,7.0,28,0.00,,,0.01,,2013-04-20 09:12:00,
2013-04-20 01:21:00,29.0,0.0,-100.00,ESE,115,4.0,7.0,29,0.00,,,0.01,,2013-04-20 09:21:00,
2013-04-20 01:32:00,29.0,0.0,-100.00,ESE,115,4.0,7.0,29,0.00,,,0.01,,2013-04-20 09:32:00,
2013-04-20 01:43:00,29.0,0.0,-100.00,ESE,115,4.0,7.0,29,0.00,,,0.01,,2013-04-20 09:43:00,
2013-04-20 01:52:00,28.0,0.0,-100.00,ESE,110,2.0,6.0,29,0.00,,,0.01,,2013-04-20 09:52:00,
2013-04-20 02:02:00,28.0,0.0,-100.00,ESE,110,2.0,6.0,29,0.00,,,0.01,,2013-04-20 10:02:00,
2013-04-20 02:12:00,28.0,0.0,-100.00,ESE,110,2.0,6.0,29,0.00,,,0.01,,2013-04-20 10:12:00,
2013-04-20 02:23:00,28.0,0.0,-100.00,East,85,3.0,7.0,30,0.00,,,0.01,,2013-04-20 10:23:00,
2013-04-20 02:33:00,28.0,0.0,-100.00,East,85,3.0,7.0,30,0.00,,,0.01,,2013-04-20 10:33:00,
2013-04-20 02:42:00,28.0,0.0,-100.00,East,85,3.0,7.0,30,0.00,,,0.01,,2013-04-20 10:42:00,
2013-04-20 02:52:00,28.0,1.0,-100.00,ENE,65,4.0,7.0,30,0.00,,,0.01,,2013-04-20 10:52:00,
2013-04-20 03:02:00,28.0,1.0,-100.00,ENE,65,4.0,7.0,30,0.00,,,0.01,,2013-04-20 11:02:00,
2013-04-20 03:12:00,28.0,1.0,-100.00,ENE,65,4.0,7.0,30,0.00,,,0.01,,2013-04-20 11:12:00,
2013-04-20 03:52:00,28.0,2.0,-100.00,ENE,65,4.0,6.0,31,0.00,,,0.01,,2013-04-20 11:52:00,
2013-04-20 04:02:00,28.0,2.0,-100.00,ENE,65,4.0,6.0,31,0.00,,,0.01,,2013-04-20 12:02:00,
2013-04-20 04:11:00,28.0,2.0,-100.00,ENE,65,4.0,6.0,31,0.00,,,0.01,,2013-04-20 12:11:00,
2013-04-20 04:22:00,26.0,1.0,-100.00,ENE,60,5.0,9.0,33,0.00,,,0.01,,2013-04-20 12:22:00,
2013-04-20 04:42:00,26.0,1.0,-100.00,ENE,60,5.0,9.0,33,0.00,,,0.01,,2013-04-20 12:42:00,
2013-04-20 04:51:00,25.0,1.0,-100.00,ENE,60,2.0,10.0,34,0.00,,,0.01,,2013-04-20 12:51:00,
2013-04-20 05:02:00,25.0,1.0,-100.00,ENE,60,2.0,10.0,34,0.00,,,0.01,,2013-04-20 13:02:00,
2013-04-20 05:11:00,25.0,1.0,-100.00,ENE,60,2.0,10.0,34,0.00,,,0.01,,2013-04-20 13:11:00,
2013-04-20 05:21:00,23.0,1.0,-100.00,ESE,120,3.0,11.0,36,0.00,,,0.01,,2013-04-20 13:21:00,
2013-04-20 05:31:00,23.0,1.0,-100.00,ESE,120,3.0,11.0,36,0.00,,,0.01,,2013-04-20 13:31:00,
2013-04-20 05:42:00,23.0,1.0,-100.00,ESE,120,3.0,11.0,36,0.00,,,0.01,,2013-04-20 13:42:00,
2013-04-20 05:52:00,22.0,1.0,-100.00,SE,125,5.0,9.0,38,0.00,,,0.01,,2013-04-20 13:52:00,
2013-04-20 06:02:00,22.0,1.0,-100.00,SE,125,5.0,9.0,38,0.00,,,0.01,,2013-04-20 14:02:00,
2013-04-20 06:11:00,22.0,1.0,-100.00,SE,125,5.0,9.0,38,0.00,,,0.01,,2013-04-20 14:11:00,
2013-04-20 06:21:00,23.0,2.0,-100.00,ESE,105,4.0,13.0,39,0.00,,,0.01,,2013-04-20 14:21:00,
2013-04-20 06:31:00,23.0,2.0,-100.00,ESE,105,4.0,13.0,39,0.00,,,0.01,,2013-04-20 14:31:00,
2013-04-20 06:42:00,23.0,2.0,-100.00,ESE,105,4.0,13.0,39,0.00,,,0.01,,2013-04-20 14:42:00,
2013-04-20 06:51:00,23.0,2.0,-100.00,East,100,6.0,11.0,39,0.00,,,0.01,,2013-04-20 14:51:00,
2013-04-20 07:01:00,23.0,2.0,-100.00,East,100,6.0,11.0,39,0.00,,,0.01,,2013-04-20 15:01:00,
2013-04-20 07:11:00,23.0,2.0,-100.00,East,100,6.0,11.0,39,0.00,,,0.01,,2013-04-20 15:11:00,
2013-04-20 07:21:00,24.0,3.0,-100.00,ESE,115,4.0,11.0,39,0.00,,,0.01,,2013-04-20 15:21:00,
2013-04-20 07:33:00,24.0,3.0,-100.00,ESE,115,4.0,11.0,39,0.00,,,0.01,,2013-04-20 15:33:00,
2013-04-20 07:43:00,24.0,3.0,-100.00,ESE,115,4.0,11.0,39,0.00,,,0.01,,2013-04-20 15:43:00,
2013-04-20 07:53:00,25.0,3.0,-100.00,ESE,110,4.0,11.0,38,0.00,,,0.01,,2013-04-20 15:53:00,
2013-04-20 08:03:00,25.0,3.0,-100.00,ESE,110,4.0,11.0,38,0.00,,,0.01,,2013-04-20 16:03:00,
2013-04-20 08:12:00,25.0,3.0,-100.00,ESE,110,4.0,11.0,38,0.00,,,0.01,,2013-04-20 16:12:00,
2013-04-20 08:23:00,25.0,3.0,-100.00,SE,145,3.0,9.0,37,0.00,,,0.01,,2013-04-20 16:23:00,
2013-04-20 08:32:00,25.0,3.0,-100.00,SE,145,3.0,9.0,37,0.00,,,0.01,,2013-04-20 16:32:00,
2013-04-20 08:42:00,25.0,3.0,-100.00,SE,145,3.0,9.0,37,0.00,,,0.01,,2013-04-20 16:42:00,
2013-04-20 08:52:00,26.0,3.0,-100.00,SE,135,6.0,11.0,37,0.00,,,0.01,,2013-04-20 16:52:00,
2013-04-20 09:02:00,26.0,3.0,-100.00,SE,135,6.0,11.0,37,0.00,,,0.01,,2013-04-20 17:02:00,
2013-04-20 09:12:00,26.0,3.0,-100.00,SE,135,6.0,11.0,37,0.00,,,0.01,,2013-04-20 17:12:00,
2013-04-20 09:22:00,27.0,4.0,-100.00,East,100,4.0,9.0,36,0.00,,,0.01,,2013-04-20 17:22:00,
2013-04-20 09:33:00,27.0,4.0,-100.00,East,100,4.0,9.0,36,0.00,,,0.01,,2013-04-20 17:33:00,
2013-04-20 09:42:00,27.0,4.0,-100.00,East,100,4.0,9.0,36,0.00,,,0.01,,2013-04-20 17:42:00,
2013-04-20 09:52:00,29.0,5.0,-100.00,ESE,110,4.0,11.0,35,0.00,,,0.01,,2013-04-20 17:52:00,
2013-04-20 10:02:00,29.0,5.0,-100.00,ESE,110,4.0,11.0,35,0.00,,,0.01,,2013-04-20 18:02:00,
2013-04-20 10:12:00,29.0,5.0,-100.00,ESE,110,4.0,11.0,35,0.00,,,0.01,,2013-04-20 18:12:00,
2013-04-20 10:22:00,30.0,5.0,-100.00,ESE,120,4.0,12.0,33,0.00,,,0.01,,2013-04-20 18:22:00,
2013-04-20 10:32:00,30.0,5.0,-100.00,ESE,120,4.0,12.0,33,0.00,,,0.01,,2013-04-20 18:32:00,
2013-04-20 10:41:00,30.0,5.0,-100.00,ESE,120,4.0,12.0,33,0.00,,,0.01,,2013-04-20 18:41:00,
2013-04-20 10:52:00,32.0,6.0,-100.00,SSE,160,3.0,11.0,32,0.00,,,0.01,,2013-04-20 18:52:00,
2013-04-20 11:01:00,32.0,6.0,-100.00,SSE,160,3.0,11.0,32,0.00,,,0.01,,2013-04-20 19:01:00,
2013-04-20 11:11:00,32.0,6.0,-100.00,SSE,160,3.0,11.0,32,0.00,,,0.01,,2013-04-20 19:11:00,
2013-04-20 11:21:00,33.0,6.0,-100.00,SSE,155,3.0,12.0,31,0.00,,,0.01,,2013-04-20 19:21:00,
2013-04-20 11:32:00,33.0,6.0,-100.00,SSE,155,3.0,12.0,31,0.00,,,0.01,,2013-04-20 19:32:00,
2013-04-20 11:42:00,33.0,6.0,-100.00,SSE,155,3.0,12.0,31,0.00,,,0.01,,2013-04-20 19:42:00,
2013-04-20 11:52:00,35.0,7.0,-100.00,ESE,105,4.0,11.0,30,0.00,,,0.01,,2013-04-20 19:52:00,
2013-04-20 12:02:00,35.0,7.0,-100.00,ESE,105,4.0,11.0,30,0.00,,,0.01,,2013-04-20 20:02:00,
2013-04-20 12:12:00,35.0,7.0,-100.00,ESE,105,4.0,11.0,30,0.00,,,0.01,,2013-04-20 20:12:00,
2013-04-20 12:21:00,35.0,7.0,-100.00,NE,35,2.0,12.0,29,0.00,,,0.01,,2013-04-20 20:21:00,
2013-04-20 12:32:00,35.0,7.0,-100.00,NE,35,2.0,12.0,29,0.00,,,0.01,,2013-04-20 20:32:00,
2013-04-20 12:42:00,35.0,7.0,-100.00,NE,35,2.0,12.0,29,0.00,,,0.01,,2013-04-20 20:42:00,
2013-04-20 12:51:00,36.0,7.0,-100.00,SE,140,4.0,12.0,29,0.00,,,0.01,,2013-04-20 20:51:00,
2013-04-20 13:01:00,36.0,7.0,-100.00,SE,140,4.0,12.0,29,0.00,,,0.01,,2013-04-20 21:01:00,
2013-04-20 13:12:00,36.0,7.0,-100.00,SE,140,4.0,12.0,29,0.00,,,0.01,,2013-04-20 21:12:00,
2013-04-20 13:21:00,36.0,7.0,-100.00,East,95,4.0,15.0,28,0.00,,,0.01,,2013-04-20 21:21:00,
2013-04-20 13:32:00,36.0,7.0,-100.00,East,95,4.0,15.0,28,0.00,,,0.01,,2013-04-20 21:32:00,
2013-04-20 13:43:00,36.0,7.0,-100.00,East,95,4.0,15.0,28,0.00,,,0.01,,2013-04-20 21:43:00,
2013-04-20 13:52:00,36.0,6.0,-100.00,SSE,155,2.0,7.0,27,0.00,,,0.01,,2013-04-20 21:52:00,
2013-04-20 14:02:00,36.0,6.0,-100.00,SSE,155,2.0,7.0,27,0.00,,,0.01,,2013-04-20 22:02:00,
2013-04-20 14:12:00,36.0,6.0,-100.00,SSE,155,2.0,7.0,27,0.00,,,0.01,,2013-04-20 22:12:00,
2013-04-20 14:22:00,37.0,6.0,-100.00,NE,55,4.0,6.0,27,0.00,,,0.01,,2013-04-20 22:22:00,
2013-04-20 14:32:00,37.0,6.0,-100.00,NE,55,4.0,6.0,27,0.00,,,0.01,,2013-04-20 22:32:00,
2013-04-20 14:42:00,37.0,6.0,-100.00,NE,55,4.0,6.0,27,0.00,,,0.01,,2013-04-20 22:42:00,
2013-04-20 14:52:00,39.0,7.0,-100.00,East,80,4.0,7.0,25,0.00,,,0.00,,2013-04-20 22:52:00,
2013-04-20 15:02:00,39.0,7.0,-100.00,East,80,4.0,7.0,25,0.00,,,0.00,,2013-04-20 23:02:00,
2013-04-20 15:11:00,39.0,7.0,-100.00,East,80,4.0,7.0,25,0.00,,,0.00,,2013-04-20 23:11:00,
2013-04-20 15:22:00,40.0,7.0,-100.00,NE,35,2.0,6.0,24,0.00,,,0.00,,2013-04-20 23:22:00,
2013-04-20 15:32:00,40.0,7.0,-100.00,NE,35,2.0,6.0,24,0.00,,,0.00,,2013-04-20 23:32:00,
2013-04-20 15:41:00,40.0,7.0,-100.00,NE,35,2.0,6.0,24,0.00,,,0.00,,2013-04-20 23:41:00,
2013-04-20 15:52:00,43.0,9.0,-100.00,SSE,155,1.0,4.0,23,0.00,,,0.00,,2013-04-20 23:52:00,
2013-04-20 16:01:00,43.0,9.0,-100.00,SSE,155,1.0,4.0,23,0.00,,,0.00,,2013-04-21 00:01:00,
2013-04-20 16:11:00,43.0,9.0,-100.00,SSE,155,1.0,4.0,23,0.00,,,0.00,,2013-04-21 00:11:00,
2013-04-20 16:21:00,42.0,8.0,-100.00,NW,305,1.0,9.0,23,0.00,,,0.00,,2013-04-21 00:21:00,
2013-04-20 16:32:00,42.0,8.0,-100.00,NW,305,1.0,9.0,23,0.00,,,0.00,,2013-04-21 00:32:00,
2013-04-20 16:42:00,42.0,8.0,-100.00,NW,305,1.0,9.0,23,0.00,,,0.00,,2013-04-21 00:42:00,
2013-04-20 16:52:00,44.0,9.0,-100.00,South,185,4.0,9.0,23,0.00,,,0.00,,2013-04-21 00:52:00,
2013-04-20 17:01:00,44.0,9.0,-100.00,South,185,4.0,9.0,23,0.00,,,0.00,,2013-04-21 01:01:00,
2013-04-20 17:11:00,44.0,9.0,-100.00,South,185,4.0,9.0,23,0.00,,,0.00,,2013-04-21 01:11:00,
2013-04-20 17:21:00,42.0,8.0,-100.00,West,275,4.0,7.0,23,0.00,,,0.00,,2013-04-21 01:21:00,
2013-04-20 17:31:00,42.0,8.0,-100.00,West,275,4.0,7.0,23,0.00,,,0.00,,2013-04-21 01:31:00,
2013-04-20 17:41:00,42.0,8.0,-100.00,West,275,4.0,7.0,23,0.00,,,0.00,,2013-04-21 01:41:00,
2013-04-20 17:52:00,41.0,8.0,-100.00,SW,225,4.0,9.0,25,0.00,,,0.00,,2013-04-21 01:52:00,
2013-04-20 18:01:00,41.0,8.0,-100.00,SW,225,4.0,9.0,25,0.00,,,0.00,,2013-04-21 02:01:00,
2013-04-20 18:11:00,41.0,8.0,-100.00,SW,225,4.0,9.0,25,0.00,,,0.00,,2013-04-21 02:11:00,
2013-04-20 18:21:00,40.0,8.0,-100.00,West,265,2.0,7.0,26,0.00,,,0.00,,2013-04-21 02:21:00,
2013-04-20 18:32:00,40.0,8.0,-100.00,West,265,2.0,7.0,26,0.00,,,0.00,,2013-04-21 02:32:00,
2013-04-20 18:41:00,40.0,8.0,-100.00,West,265,2.0,7.0,26,0.00,,,0.00,,2013-04-21 02:41:00,
2013-04-20 18:51:00,38.0,6.0,-100.00,West,280,8.0,13.0,26,0.00,,,0.00,,2013-04-21 02:51:00,
2013-04-20 19:01:00,38.0,6.0,-100.00,West,280,8.0,13.0,26,0.00,,,0.00,,2013-04-21 03:01:00,
2013-04-20 19:11:00,38.0,6.0,-100.00,West,280,8.0,13.0,26,0.00,,,0.00,,2013-04-21 03:11:00,
2013-04-20 19:21:00,38.0,7.0,-100.00,West,275,5.0,9.0,26,0.00,,,0.00,,2013-04-21 03:21:00,
2013-04-20 19:32:00,38.0,7.0,-100.00,West,275,5.0,9.0,26,0.00,,,0.00,,2013-04-21 03:32:00,
2013-04-20 19:42:00,38.0,7.0,-100.00,West,275,5.0,9.0,26,0.00,,,0.00,,2013-04-21 03:42:00,
2013-04-20 19:52:00,38.0,7.0,-100.00,West,280,7.0,10.0,27,0.00,,,0.00,,2013-04-21 03:52:00,
2013-04-20 20:02:00,38.0,7.0,-100.00,West,280,7.0,10.0,27,0.00,,,0.00,,2013-04-21 04:02:00,
2013-04-20 20:12:00,38.0,7.0,-100.00,West,280,7.0,10.0,27,0.00,,,0.00,,2013-04-21 04:12:00,
2013-04-20 20:22:00,37.0,7.0,-100.00,WNW,290,5.0,9.0,28,0.00,,,0.00,,2013-04-21 04:22:00,
2013-04-20 20:33:00,37.0,7.0,-100.00,WNW,290,5.0,9.0,28,0.00,,,0.00,,2013-04-21 04:33:00,
2013-04-20 20:42:00,37.0,7.0,-100.00,WNW,290,5.0,9.0,28,0.00,,,0.00,,2013-04-21 04:42:00,
2013-04-20 20:52:00,36.0,7.0,-100.00,West,275,4.0,9.0,28,0.00,,,0.00,,2013-04-21 04:52:00,
2013-04-20 21:02:00,36.0,7.0,-100.00,West,275,4.0,9.0,28,0.00,,,0.00,,2013-04-21 05:02:00,
2013-04-20 21:12:00,36.0,7.0,-100.00,West,275,4.0,9.0,28,0.00,,,0.00,,2013-04-21 05:12:00,
2013-04-20 21:22:00,35.0,6.0,-100.00,West,270,5.0,9.0,29,0.00,,,0.00,,2013-04-21 05:22:00,
2013-04-20 21:32:00,35.0,6.0,-100.00,West,270,5.0,9.0,29,0.00,,,0.00,,2013-04-21 05:32:00,
2013-04-20 21:42:00,35.0,6.0,-100.00,West,270,5.0,9.0,29,0.00,,,0.00,,2013-04-21 05:42:00,
2013-04-20 21:52:00,33.0,5.0,-100.00,West,280,4.0,6.0,30,0.00,,,0.00,,2013-04-21 05:52:00,
2013-04-20 22:01:00,33.0,5.0,-100.00,West,280,4.0,6.0,30,0.00,,,0.00,,2013-04-21 06:01:00,
2013-04-20 22:12:00,33.0,5.0,-100.00,West,280,4.0,6.0,30,0.00,,,0.00,,2013-04-21 06:12:00,
2013-04-20 22:21:00,33.0,6.0,-100.00,West,270,3.0,9.0,31,0.00,,,0.00,,2013-04-21 06:21:00,
2013-04-20 22:32:00,33.0,6.0,-100.00,West,270,3.0,9.0,31,0.00,,,0.00,,2013-04-21 06:32:00,
2013-04-20 22:42:00,33.0,6.0,-100.00,West,270,3.0,9.0,31,0.00,,,0.00,,2013-04-21 06:42:00,
2013-04-20 22:51:00,32.0,5.0,-100.00,WSW,245,4.0,11.0,31,0.00,,,0.00,,2013-04-21 06:51:00,
2013-04-20 23:01:00,32.0,5.0,-100.00,WSW,245,4.0,11.0,31,0.00,,,0.00,,2013-04-21 07:01:00,
2013-04-20 23:11:00,32.0,5.0,-100.00,WSW,245,4.0,11.0,31,0.00,,,0.00,,2013-04-21 07:11:00,
2013-04-20 23:21:00,33.0,6.0,-100.00,WSW,255,9.0,15.0,31,0.00,,,0.00,,2013-04-21 07:21:00,
2013-04-20 23:31:00,33.0,6.0,-100.00,WSW,255,9.0,15.0,31,0.00,,,0.00,,2013-04-21 07:31:00,
2013-04-20 23:41:00,33.0,6.0,-100.00,WSW,255,9.0,15.0,31,0.00,,,0.00,,2013-04-21 07:41:00,
2013-04-20 23:52:00,33.0,6.0,-100.00,West,275,7.0,13.0,31,0.00,,,0.00,,2013-04-21 07:52:00,